Location: Krasnoyarskiy Pitomnik
(51.1333°N, 71.6167°E)
Time: 08:18:42
(UTC+00:00)

Okean 1-7 Rocket - Pass Details

Date: 22 October 2021
Orbit: 617 x 648 km, 82.5° (Epoch: 06 December)

Event Time Altitude Azimuth Distance (km) Brightness Sun altitude
Rises 13:52:55 0° 345° (NNW) 2,908 7.3 -17.3°
Reaches altitude 10° 13:55:11 10° 341° (NNW) 2,000 6.5 -17.7°
Maximum altitude 13:59:28 51° 266° (W) 790 4.5 -18.4°
Drops below altitude 10° 14:03:45 10° 190° (S) 1,999 6.2 -19.0°
Sets 14:06:01 0° 186° (S) 2,906 7.0 -19.4°
